Flag for Israel Weather past 2 weeks in Tel Aviv, Israel

Now
54 °F

Sunny.


Feels Like: 54 °F
Forecast: 56 / 67 °F
Wind: 2 mph from North

Location: Ben Gurion International Airport

Current Time: Dec 26, 2014 at 8:43:19 AM

Latest Report: Dec 26, 2014 at 8:20 AM


Visibility: 10 mi

Pressure: 30.07 "Hg

Humidity: 72%

Dew point: 45 °F

Location of Tel AvivLocation

Historic Weather in Tel Aviv — Graph

°F

Tel Aviv temperature yesterday

Maximum temperature yesterday: 72 °F (at 2:50 PM)
Minimum temperature yesterday: 46 °F (at 4:20 AM)
Average temperature yesterday: 58 °F

Past Weeks' High & Low Weather Summary

 TemperatureHumidityPressure
High79 °F (Dec 11, 12:50 PM)94% (Dec 14, 2:50 AM)30.30 "Hg (Dec 14, 2:50 AM)
Low46 °F (Dec 25, 4:20 AM)35% (Dec 13, 11:50 AM)29.89 "Hg (Dec 12, 3:50 AM)
Average61 °F72%30.12 "Hg
* Reported Dec 11 7:20 AM — Dec 26 7:20 AM, Tel Aviv, Weather by CustomWeather, © 2014

Note: Actual official high and low records may vary slightly from our data, if they occured in-between our weather recording intervals... More about our weather records

Advertising

Tel Aviv weather history for previous 24 hours

 ConditionsComfort  
Time TempWeatherWind HumidityBarometerVisibility
7:20 AM
Dec 26
50 °FSunny.3 mph76%30.04 "Hg10 mi
6:50 AM46 °FSunny.1 mph82%30.04 "Hg10 mi
6:20 AM48 °FClear.3 mph76%30.04 "Hg10 mi
5:50 AM48 °FClear.2 mph76%30.04 "Hg10 mi
5:20 AM48 °FClear.5 mph76%30.04 "Hg10 mi
4:20 AM50 °FClear.1 mph76%30.04 "Hg10 mi
3:50 AM50 °FClear.2 mph76%30.04 "Hg10 mi
3:20 AM50 °FClear.2 mph76%30.04 "Hg10 mi
2:50 AM52 °FClear.2 mph72%30.04 "Hg10 mi
2:20 AM52 °FClear.3 mph72%30.04 "Hg10 mi
1:50 AM54 °FClear.5 mph72%30.04 "Hg10 mi
1:20 AM52 °FClear.5 mph72%30.07 "Hg10 mi
12:50 AM54 °FClear.5 mph72%30.07 "Hg10 mi
12:20 AM52 °FClear.3 mph77%30.07 "Hg10 mi
11:50 PM
Dec 25
54 °FClear.5 mph67%30.07 "Hg10 mi
11:20 PM54 °FClear.2 mph72%30.07 "Hg10 mi
10:50 PM52 °FClear.2 mph77%30.07 "Hg10 mi
10:20 PM54 °FClear.3 mph72%30.09 "Hg10 mi
9:50 PM54 °FClear.5 mph72%30.09 "Hg10 mi
9:20 PM54 °FClear.2 mph72%30.09 "Hg10 mi
8:50 PM55 °FClear.1 mph67%30.09 "Hg10 mi
8:20 PM57 °FClear.1 mph59%30.09 "Hg10 mi
7:50 PM59 °FClear.8 mph55%30.12 "Hg10 mi
7:20 PM59 °FClear.10 mph59%30.12 "Hg10 mi
6:50 PM61 °FClear.7 mph55%30.12 "Hg10 mi
6:20 PM61 °FClear.7 mph55%30.12 "Hg10 mi
5:20 PM63 °FClear.6 mph56%30.12 "Hg10 mi
4:50 PM66 °FClear.7 mph49%30.12 "Hg10 mi
4:20 PM70 °FSunny.7 mph40%30.12 "Hg10 mi
3:50 PM72 °FSunny.9 mph36%30.12 "Hg10 mi
3:20 PM72 °FSunny.9 mph36%30.12 "Hg10 mi
2:50 PM72 °FSunny.12 mph36%30.12 "Hg10 mi
2:20 PM70 °FSunny.12 mph35%30.12 "Hg10 mi
1:50 PM70 °FSunny.15 mph35%30.12 "Hg10 mi
1:20 PM70 °FSunny.15 mph35%30.15 "Hg10 mi
12:50 PM70 °FSunny.13 mph38%30.15 "Hg10 mi
12:20 PM70 °FSunny.14 mph38%30.15 "Hg10 mi
11:50 AM70 °FSunny.13 mph38%30.18 "Hg10 mi
11:20 AM70 °FSunny.12 mph38%30.18 "Hg10 mi
10:50 AM68 °FSunny.12 mph40%30.21 "Hg10 mi
10:20 AM68 °FSunny.10 mph40%30.21 "Hg10 mi
9:50 AM64 °FSunny.1 mph56%30.24 "Hg10 mi
9:20 AM63 °FSunny.2 mph59%30.24 "Hg10 mi
8:50 AM59 °FSunny.1 mph68%30.24 "Hg10 mi
8:20 AM57 °FSunny.1 mph67%30.21 "Hg10 mi
Weather by CustomWeather, © 2014

See weather overviewHow to use our weather pages